Voltar ao catálogo

STARLINK-34257

AtivoComunicaçõesVLEO
NORAD 65225·PAYLOAD·🇺🇸 United States

Lançado Aug 14, 2025 de Cape Canaveral Space Force Station

Loading…

Próximas Passagens (próximas 24 horas)

TLE

AtualizadoSource: CelesTrak SupGP

Época: Sep 14, 2026, 21:21 UTC

1 65225C 25176AD  26257.89006944 -.00011672  00000+0 -34505-3 0  2578
2 65225  53.1593 350.0518 0001157  82.9769 228.0539 15.34379499    19

Acompanhe STARLINK-34257 em tempo real com AllMySat

Download on the App Store